KB1JDX Weather Reports


Display with metric or nautical units.
time (UTC)temp
F
wind
direction
speed
MPH
gust
MPH
rain 1hr
in
rain 24hr
in
rain mn
in
humidity
%
barometer
mb
20260831021218 71 196 0.0 0.0 0.00 0.00 0.00 100 1016.9
20260831015218 71 196 0.0 0.0 0.00 0.00 0.00 100 1017.0
20260831013218 71 196 0.0 0.0 0.00 0.00 0.00 100 1017.0
20260831013113 71 196 0.0 0.0 0.00 0.00 0.00 100 1017.0
20260831011218 71 195 0.0 0.0 0.00 0.00 0.00 100 1017.0
20260831005218 72 208 0.0 0.0 0.00 0.00 0.00 100 1017.0
20260831003218 72 209 0.0 0.0 0.00 0.00 0.00 100 1017.1
20260831003113 72 208 0.0 0.0 0.00 0.00 0.00 100 1017.1
20260831001218 72 208 0.0 0.0 0.00 0.00 0.00 100 1016.9
20260830235218 72 208 0.0 7.0 0.00 0.00 0.00 100 1016.7
20260830233218 73 208 0.0 7.0 0.00 0.00 0.00 14 1016.7
20260830233113 73 208 0.0 7.0 0.00 0.00 0.00 15 1016.7
20260830231218 73 208 0.0 7.0 0.00 0.00 0.00 29 1016.6
20260830225218 74 209 0.0 0.0 0.00 0.00 0.00 39 1016.7
20260830223218 74 209 0.0 0.0 0.00 0.00 0.00 45 1016.6
20260830223113 74 209 0.0 0.0 0.00 0.00 0.00 45 1016.7
20260830221218 74 221 0.0 0.0 0.00 0.00 0.00 47 1016.9
20260830215218 74 220 0.0 11.0 0.00 0.00 0.00 50 1016.9
20260830213218 75 226 0.0 11.0 0.00 0.00 0.00 52 1016.8
20260830213113 75 226 0.0 11.0 0.00 0.00 0.00 52 1016.8
20260830211218 75 220 0.0 11.0 0.00 0.00 0.00 53 1016.9
20260830205218 76 203 0.0 10.0 0.00 0.00 0.00 54 1016.9
20260830203113 77 214 0.0 10.0 0.00 0.00 0.00 54 1017.0
20260830201218 77 220 5.0 10.0 0.00 0.00 0.00 55 1016.9
20260830195218 78 220 0.0 9.0 0.00 0.00 0.00 54 1017.3
20260830193220 79 219 0.0 9.0 0.00 0.00 0.00 52 1017.4
20260830193113 79 229 9.0 9.0 0.00 0.00 0.00 52 1017.4
20260830191218 80 204 0.0 9.0 0.00 0.00 0.00 50 1017.7
20260830183113 81 216 0.0 13.0 0.00 0.00 0.00 48 1018.2
20260830181218 81 209 0.0 13.0 0.00 0.00 0.00 48 1018.2
20260830175219 80 236 0.0 16.0 0.00 0.00 0.00 47 1018.5
20260830173218 81 213 0.0 16.0 0.00 0.00 0.00 47 1018.6
20260830173113 81 220 0.0 16.0 0.00 0.00 0.00 45 1018.8
20260830171219 81 225 0.0 16.0 0.00 0.00 0.00 47 1018.9
20260830165219 81 198 0.0 15.0 0.00 0.00 0.00 47 1019.1
20260830163219 81 206 0.0 15.0 0.00 0.00 0.00 47 1019.2
20260830163113 81 216 0.0 15.0 0.00 0.00 0.00 47 1019.2
20260830161218 79 204 0.0 15.0 0.00 0.00 0.00 47 1019.3
20260830155219 79 203 0.0 8.0 0.00 0.00 0.00 46 1019.6
20260830153218 78 217 2.0 8.0 0.00 0.00 0.00 44 1019.8
20260830153113 78 221 1.0 8.0 0.00 0.00 0.00 43 1019.8
20260830151218 77 190 0.0 8.0 0.00 0.00 0.00 42 1019.9
20260830145218 76 231 0.0 0.0 0.00 0.00 0.00 37 1020.2
20260830143221 74 142 0.0 0.0 0.00 0.00 0.00 22 1020.5
20260830143113 74 142 0.0 0.0 0.00 0.00 0.00 22 1020.5
20260830141218 71 142 0.0 0.0 0.00 0.00 0.00 11 1020.6
20260830135221 69 142 0.0 0.0 0.00 0.00 0.00 100 1020.9
20260830133218 67 142 0.0 0.0 0.00 0.00 0.00 100 1021.1
20260830133113 67 142 0.0 0.0 0.00 0.00 0.00 100 1021.1
20260830131218 65 142 0.0 0.0 0.00 0.00 0.00 100 1021.1
20260830130227 63 141 0.0 0.0 0.00 0.00 0.00 100 1021.5
20260830125217 64 141 0.0 0.0 0.00 0.00 0.00 100 1021.1
20260830123218 63 141 0.0 0.0 0.00 0.00 0.00 100 1021.5
20260830123113 62 141 0.0 0.0 0.00 0.00 0.00 100 1021.5
20260830121218 60 141 0.0 0.0 0.00 0.00 0.00 100 1021.6
20260830115218 58 141 0.0 0.0 0.00 0.00 0.00 100 1021.5
20260830113221 57 141 0.0 0.0 0.00 0.00 0.00 100 1021.5
20260830113113 57 141 0.0 0.0 0.00 0.00 0.00 100 1021.5
20260830111218 57 141 0.0 0.0 0.00 0.00 0.00 100 1021.5
20260830103113 56 141 0.0 0.0 0.00 0.00 0.00 100 1021.5
20260830101218 56 141 0.0 0.0 0.00 0.00 0.00 100 1021.8
20260830095220 55 141 0.0 0.0 0.00 0.00 0.00 100 1021.7
20260830093218 55 141 0.0 0.0 0.00 0.00 0.00 100 1021.7
20260830093113 55 141 0.0 0.0 0.00 0.00 0.00 100 1021.7
20260830091218 55 141 0.0 0.0 0.00 0.00 0.00 100 1021.7
20260830083113 56 141 0.0 0.0 0.00 0.00 0.00 100 1021.7
20260830075219 55 141 0.0 0.0 0.00 0.00 0.00 100 1022.2
20260830073113 55 141 0.0 0.0 0.00 0.00 0.00 100 1022.0
20260830065218 56 141 0.0 0.0 0.00 0.00 0.00 100 1021.9
20260830063218 56 141 0.0 0.0 0.00 0.00 0.00 100 1021.8
20260830063113 56 141 0.0 0.0 0.00 0.00 0.00 100 1021.7
20260830061219 56 141 0.0 0.0 0.00 0.00 0.00 100 1021.7
20260830055218 57 141 0.0 0.0 0.00 0.00 0.00 100 1021.8
20260830053221 57 141 0.0 0.0 0.00 0.00 0.00 100 1021.9
20260830053113 57 141 0.0 0.0 0.00 0.00 0.00 100 1021.9
20260830045220 57 141 0.0 0.0 0.00 0.00 0.00 100 1021.7
20260830043219 57 141 0.0 0.0 0.00 0.00 0.00 100 1021.8
20260830043113 57 141 0.0 0.0 0.00 0.00 0.00 100 1021.7
20260830041218 57 141 0.0 0.0 0.00 0.00 0.00 100 1021.6
20260830035218 58 141 0.0 0.0 0.00 0.00 0.00 100 1021.7
20260830033218 58 141 0.0 0.0 0.00 0.00 0.00 100 1021.7
20260830033113 58 141 0.0 0.0 0.00 0.00 0.00 100 1021.7
20260830023219 59 141 0.0 0.0 0.00 0.00 0.00 100 1021.8
20260830023113 59 141 0.0 0.0 0.00 0.00 0.00 100 1021.7